Overview Statistics Trail Chart Weather Telemetry Raw packets
 

This is the latest recevied weather packets stored in our database for station/object KG7FOQ-13. If no packets are shown the sender has not sent any weather packets the latest 10 day(s).

<< 77 78 79 80 81 82 83 >>
Time Temp. Humidity Pressure Rain* Wind** Luminosity Snow
1788044136 26.67° C 28% 1012.5 hPa 0 mm - - -
1788043834 26.11° C 28% 1012.6 hPa 0 mm - - -
1788043232 26.11° C 30% 1012.8 hPa 0 mm - - -
1788042640 26.11° C 30% 1012.8 hPa 0 mm - - -
1788042331 26.11° C 30% 1012.9 hPa 0 mm - - -
1788042030 26.11° C 30% 1013 hPa 0 mm - - -
1788041730 26.11° C 31% 1013.2 hPa 0 mm - - -
1788041429 25.56° C 32% 1013.3 hPa 0 mm - - -
1788041129 25° C 32% 1013.3 hPa 0 mm - - -
1788040828 25° C 33% 1013.4 hPa 0 mm - - -
1788040528 25° C 35% 1013.5 hPa 0 mm - - -
1788040227 25° C 34% 1013.6 hPa 0 mm - - -
1788039927 25° C 35% 1013.7 hPa 0 mm - - -
1788039626 25° C 34% 1013.7 hPa 0 mm - - -
1788038724 24.44° C 35% 1014 hPa 0 mm - - -
1788038424 25° C 35% 1014 hPa 0 mm - - -
1788038123 24.44° C 36% 1014.1 hPa 0 mm - - -
1788037823 25° C 36% 1014.3 hPa 0 mm - - -
1788037522 24.44° C 36% 1014.4 hPa 0 mm - - -
1788037222 24.44° C 35% 1014.5 hPa 0 mm - - -
1788036921 24.44° C 34% 1014.5 hPa 0 mm - - -
1788036621 25.56° C 35% 1014.5 hPa 0 mm - - -
1788036320 25° C 38% 1014.7 hPa 0 mm - - -
1788036021 25° C 38% 1014.7 hPa 0 mm - - -
1788035719 25° C 38% 1014.8 hPa 0 mm - - -

* Rain latest hour (hover to see other rain measurements)
** Current wind speed in m/s (hover to see current wind gust speed)